logo
Search for airport 
image banner adimage banner adimage banner ad
image banner ad

LZSL - Sliac

Located in Sliac, Slovakia

ICAO - LZSL, IATA - SLD

Data provided by Airmate  

General information

Coordinates: N48°38'17" E19°8'3"
Elevation is 1043 feet MSL.
Magnetic variation is 5.3168° East
View others Airports in Banská Bystrica

Operational data

Special qualification required
Current time UTC:
Current local time:
Weather
TAF: TAF LZSL 251330Z 2515/2524 VRB03KT CAVOK
View NOTAMs / SUP AIP / TFR affecting this airport [VIEW]
Communications frequencies: [VIEW]

Runways:

RWY identifierQFULength (ft)Width (ft)SurfaceLDA (ft)
18182°7874187CON
367874187CON

Airport contact information

Address: Sliac Slovakia

Other aviation service providers

Flight schools

Sky Service

Sky Service

Satellite view of LZSL